Flag for Greece Weather past 2 weeks in Glyfada, Greece

Now
90 °F

Passing clouds.


Feels Like: 88 °F
Forecast: 79 / 90 °F
Wind: 12 mph from North

Location: Eleftherios Venizelos International Airport

Current Time: Aug 5, 2015 at 11:44:21 AM

Latest Report: Aug 5, 2015 at 10:50 AM


Visibility: N/A

Pressure: 29.83 "Hg

Humidity: 33%

Dew point: 57 °F

Location of GlyfadaLocation

Historic Weather in Glyfada — Graph

°F

Glyfada temperature yesterday

Maximum temperature yesterday: 90 °F (at 12:20 PM)
Minimum temperature yesterday: 73 °F (at 11:20 PM)
Average temperature yesterday: 83 °F

Past Weeks' High & Low Weather Summary

 TemperatureHumidityPressure
High99 °F (Jul 29, 2:50 PM)83% (Jul 26, 4:50 AM)30.01 "Hg (Jul 26, 4:50 AM)
Low63 °F (Jul 25, 6:20 AM)16% (Jul 21, 2:20 PM)29.68 "Hg (Jul 28, 3:50 AM)
Average83 °F46%29.82 "Hg
* Reported Jul 21 10:20 AM — Aug 5 10:20 AM, Glyfada, Weather by CustomWeather, © 2015

Note: Actual official high and low records may vary slightly from our data, if they occured in-between our weather recording intervals... More about our weather records

Advertising

Glyfada weather history for previous 24 hours

 ConditionsComfort  
Time TempWeatherWind HumidityBarometerVisibility
10:20 AM
Wed, Aug 5
90 °FPassing clouds.14 mph33%29.83 "HgN/A
9:50 AM88 °FSunny.15 mph35%29.83 "Hg10 mi
8:50 AM86 °FSunny.9 mph38%29.83 "Hg10 mi
8:20 AM86 °FSunny.10 mph35%29.83 "Hg10 mi
7:50 AM84 °FPassing clouds.7 mph40%29.83 "HgN/A
7:20 AM81 °FClear.2 mph45%29.83 "Hg10 mi
5:50 AM72 °FClear.2 mph57%29.80 "Hg10 mi
5:20 AM73 °FClear.1 mph53%29.80 "Hg10 mi
4:50 AM73 °FClear.1 mph53%29.83 "Hg10 mi
4:20 AM72 °FClear.2 mph53%29.83 "Hg10 mi
3:50 AM73 °FClear.1 mph50%29.83 "Hg10 mi
3:20 AM75 °FClear.3 mph50%29.83 "Hg10 mi
2:50 AM72 °FClear.3 mph57%29.83 "Hg10 mi
2:20 AM73 °FClear.2 mph57%29.83 "Hg10 mi
1:50 AM73 °FClear.3 mph57%29.83 "Hg10 mi
1:20 AM75 °FClear.1 mph54%29.83 "Hg10 mi
12:50 AM73 °FPassing clouds.5 mph61%29.83 "HgN/A
12:20 AM75 °FPassing clouds.7 mph57%29.83 "HgN/A
11:50 PM
Tue, Aug 4
73 °FClear.7 mph61%29.83 "Hg10 mi
11:20 PM73 °FClear.3 mph61%29.86 "Hg10 mi
10:50 PM75 °FClear.3 mph57%29.86 "Hg10 mi
10:20 PM77 °FClear.2 mph54%29.86 "Hg10 mi
9:50 PM79 °FClear.2 mph48%29.86 "Hg10 mi
8:50 PM81 °FSunny.3 mph48%29.86 "Hg10 mi
8:20 PM81 °FSunny.9 mph48%29.86 "Hg10 mi
7:50 PM82 °FPassing clouds.5 mph42%29.86 "HgN/A
7:20 PM82 °FSunny.6 mph40%29.83 "Hg10 mi
6:50 PM86 °FSunny.13 mph31%29.83 "Hg10 mi
6:20 PM86 °FSunny.16 mph33%29.83 "Hg10 mi
5:50 PM86 °FPassing clouds.18 mph31%29.83 "HgN/A
5:20 PM88 °FPassing clouds.21 mph29%29.83 "HgN/A
4:50 PM88 °FPassing clouds.22 mph31%29.83 "HgN/A
4:20 PM88 °FPassing clouds.22 mph31%29.83 "HgN/A
3:50 PM88 °FPassing clouds.24 mph43%29.83 "HgN/A
3:20 PM86 °FPassing clouds.25 mph49%29.83 "HgN/A
2:50 PM88 °FPassing clouds.22 mph43%29.86 "HgN/A
2:20 PM88 °FPassing clouds.24 mph40%29.86 "HgN/A
1:50 PM88 °FPassing clouds.21 mph38%29.86 "HgN/A
1:20 PM88 °FPassing clouds.22 mph38%29.86 "HgN/A
12:50 PM88 °FPassing clouds.22 mph40%29.86 "HgN/A
12:20 PM90 °FPassing clouds.21 mph41%29.89 "HgN/A
11:50 AM88 °FPassing clouds.17 mph43%29.89 "HgN/A
11:20 AM88 °FPassing clouds.16 mph46%29.89 "HgN/A
Weather by CustomWeather, © 2015

See weather overviewHow to use our weather pages